RH
34 33 32 31 30 29 28 27 26 26 25 24 23 21 20 19 17 14 10 9 8 9 9 10 12 13 14 13 13 13 12 12 13 11 10 10 7 4 4 4 4 4 5 5 5 7 8 10 12 13 14 15 15 16 19 19 23 22 30 67 77 60 57 57 57 56 57 56 55 54 57 69 64 50 49 46 43 45 50 53 55 51 46 46 44 45 51 52
35 35 34 34 33 32 30 29 27 27 26 25 24 23 22 21 20 18 15 12 9 8 8 9 10 11 12 13 14 13 13 12 12 11 12 13 9 5 4 3 4 3 4 5 5 6 7 9 11 12 13 14 15 17 20 22 24 22 39 71 69 62 63 60 64 65 62 59 55 53 54 66 68 57 52 55 49 41 46 49 51 52 48 47 43 41 46 50
34 34 34 34 34 33 33 32 30 29 27 26 25 24 24 22 21 20 19 17 13 10 8 8 9 10 11 12 13 13 13 12 11 10 13 15 11 8 7 4 4 3 4 4 5 5 6 9 10 12 13 14 16 18 20 22 26 24 42 73 71 67 67 60 63 64 59 57 58 54 51 61 68 62 58 65 59 46 48 45 45 51 50 49 45 42 40 45
31 32 33 33 34 33 33 33 32 31 30 28 27 26 25 24 23 21 20 20 18 14 10 8 8 8 9 10 12 13 13 13 11 9 13 15 12 11 9 7 5 3 4 4 5 5 6 8 9 11 12 13 14 17 21 20 29 31 36 65 76 68 67 66 63 58 52 51 57 52 49 57 61 59 60 72 70 57 57 49 43 46 49 51 47 44 39 40
29 29 30 31 32 32 32 32 32 32 31 30 29 28 27 26 25 23 22 21 20 18 14 11 8 8 8 9 10 11 13 14 12 10 11 13 12 12 10 9 6 4 5 4 5 4 5 7 9 11 11 21 21 13 20 19 27 34 27 46 68 67 69 70 60 53 47 46 53 52 54 58 52 50 57 73 69 56 60 52 41 40 44 51 51 49 43 37
26 27 28 29 30 30 30 31 31 31 30 30 30 29 29 28 26 25 24 23 22 20 18 15 11 9 7 8 9 10 12 14 13 11 11 12 12 13 11 10 7 5 5 4 5 3 5 6 8 11 8 28 29 11 18 18 19 31 31 37 49 59 69 69 58 50 46 45 52 54 55 52 44 47 53 65 67 57 56 47 39 38 37 45 52 53 49 40
22 24 26 27 29 29 29 29 30 30 30 29 29 29 29 29 28 27 25 24 24 22 21 19 15 12 8 8 8 9 9 10 12 13 14 14 13 14 13 12 9 7 5 4 5 3 5 5 7 10 7 25 28 15 25 20 15 26 38 43 38 47 57 60 56 49 47 45 47 48 46 43 42 52 53 55 63 58 53 46 40 40 35 37 48 54 53 47
13 15 19 22 25 27 28 29 29 29 29 28 28 28 29 29 29 29 28 26 24 24 23 21 19 15 12 8 7 8 7 9 13 14 16 16 16 17 15 15 12 9 7 4 5 3 5 4 7 9 6 22 27 25 31 23 18 19 26 36 30 35 44 51 55 50 49 47 44 41 39 39 38 48 53 53 59 54 51 51 43 42 39 35 44 52 55 53
6 7 9 12 15 19 22 25 28 29 28 28 27 27 28 28 28 28 29 28 26 25 24 23 21 18 15 11 8 7 7 11 14 13 15 16 17 17 15 17 15 14 11 7 6 4 5 4 6 9 9 26 31 28 28 25 36 30 18 25 23 27 36 45 54 50 50 50 45 40 37 41 39 39 47 50 52 49 47 52 49 45 42 37 40 49 54 55
4 4 5 5 7 9 12 16 20 24 26 27 27 27 27 27 27 27 28 29 29 26 25 24 22 21 18 15 11 7 7 12 13 12 13 14 16 15 13 16 16 17 15 11 8 4 5 4 5 9 14 35 37 27 23 24 46 48 29 26 21 22 29 38 49 48 50 50 45 41 39 45 45 38 43 45 42 43 42 45 50 48 46 40 38 44 51 54
2 2 3 3 4 4 5 7 9 13 18 22 25 26 27 27 26 26 27 27 29 28 27 25 24 23 21 18 14 8 7 9 12 13 12 12 13 14 14 14 15 16 15 13 8 4 5 4 7 10 14 32 36 27 24 19 32 44 37 28 21 21 25 31 42 45 48 48 43 41 39 44 46 37 41 44 36 38 41 40 44 47 47 44 39 40 46 51
2 2 2 2 2 2 3 3 4 6 8 12 17 21 24 26 26 26 26 26 27 28 28 27 25 24 22 20 16 10 8 8 9 11 12 12 12 14 15 14 14 13 14 12 7 5 5 5 9 13 19 31 37 35 30 20 18 26 28 27 28 30 30 31 39 44 46 45 41 40 39 41 43 34 33 36 29 31 37 39 42 43 45 45 41 38 40 47
2 2 2 2 2 2 2 2 2 3 4 6 8 12 15 20 24 25 26 26 26 27 28 29 27 26 24 21 18 12 9 8 8 9 11 11 12 13 14 15 13 11 13 11 9 8 5 8 6 9 27 35 42 45 37 28 23 23 24 27 33 33 30 32 35 39 41 41 40 40 37 33 37 37 34 30 25 25 28 32 39 40 41 43 42 39 37 40
2 2 2 2 2 2 2 2 2 2 2 3 4 6 8 11 17 21 24 25 26 26 27 29 29 28 25 21 20 14 9 9 8 8 9 11 12 13 14 15 13 12 12 9 13 13 8 10 5 13 35 37 42 48 35 32 31 29 31 31 33 30 27 31 32 35 37 38 39 38 35 29 32 41 38 29 25 23 22 25 31 37 39 39 40 40 38 36
3 3 2 2 2 2 2 2 2 2 1 2 2 3 4 6 9 13 19 23 25 26 26 29 29 29 26 23 22 15 9 9 8 8 9 11 12 13 15 15 14 13 11 8 11 13 10 10 10 29 49 40 41 44 30 31 32 30 32 29 29 27 26 30 32 36 35 34 37 37 34 29 29 38 39 30 26 23 21 24 24 30 37 37 39 38 38 38
3 3 3 2 3 2 2 2 2 2 1 2 1 2 2 3 5 7 11 16 21 25 26 28 29 29 28 25 23 19 13 10 9 10 10 12 13 15 17 17 19 15 10 10 9 11 12 12 21 43 59 48 37 35 27 27 27 28 29 25 25 25 25 29 31 35 34 32 35 36 34 30 28 35 39 32 27 23 22 26 24 24 34 38 39 38 37 38
2 3 3 2 2 2 2 2 2 2 1 2 1 2 2 2 3 3 5 9 14 20 24 27 28 29 29 24 24 22 18 13 9 10 11 14 14 15 18 19 23 17 11 14 13 17 18 22 38 52 61 55 38 31 28 24 23 24 25 23 24 27 27 28 28 30 31 31 33 35 34 32 29 33 39 32 26 24 21 29 31 23 29 37 40 40 36 36
2 2 2 2 2 2 2 2 2 2 2 2 1 1 1 1 2 2 4 6 9 14 20 24 26 29 29 24 24 23 21 17 11 9 10 15 16 15 18 21 24 19 16 19 20 26 27 35 56 58 54 52 40 33 28 23 22 19 19 21 22 26 29 29 28 27 28 29 28 31 32 33 31 30 37 34 25 24 21 28 34 26 26 34 39 41 37 34
2 2 2 2 2 1 2 2 2 2 1 2 2 2 1 1 2 2 3 5 6 9 14 20 24 29 28 24 24 23 22 19 14 11 9 13 16 16 19 23 27 23 19 23 25 31 33 42 61 56 44 42 37 34 29 23 21 18 16 18 19 23 26 28 29 28 29 28 27 28 28 28 28 26 33 35 25 22 22 22 28 28 27 31 38 40 37 33
1 2 2 1 2 2 2 1 1 1 1 1 1 1 1 1 2 2 2 3 4 6 9 14 18 25 28 26 25 22 22 21 17 13 10 12 15 18 22 24 28 27 23 26 29 32 34 41 52 44 36 37 34 33 31 24 21 20 18 16 17 19 23 27 29 31 30 29 28 27 26 25 25 24 28 33 26 21 23 21 21 27 29 31 36 37 35 34
2 1 1 2 1 1 1 1 1 1 1 1 1 1 1 1 1 2 3 3 4 5 7 10 13 19 24 27 27 22 20 20 18 14 10 11 15 19 22 23 27 30 29 29 30 34 35 37 40 36 33 35 34 32 30 26 22 22 20 16 16 16 19 24 28 31 30 30 29 28 28 26 26 25 24 30 28 21 23 22 20 26 29 31 34 36 36 36
2 2 2 2 1 2 2 1 1 1 1 1 1 2 1 1 2 2 2 3 4 5 5 7 10 13 19 25 28 25 21 19 19 16 10 11 14 18 21 23 26 30 32 32 32 36 36 32 32 32 32 31 31 30 29 27 24 22 20 16 17 17 17 20 26 30 30 30 29 28 28 25 25 26 24 28 27 21 23 23 19 24 29 29 32 35 36 36
2 2 2 2 2 2 2 2 2 1 1 2 1 2 2 2 2 1 1 2 3 4 4 6 7 9 14 21 28 29 25 20 18 16 12 11 13 18 22 23 26 30 33 32 32 35 32 27 26 28 29 28 29 30 30 28 25 22 18 15 16 17 18 19 24 28 29 29 28 26 27 25 24 25 24 27 26 22 23 23 19 21 27 30 32 35 36 36
2 2 2 2 2 2 2 2 2 2 2 2 2 2 2 2 2 2 2 2 3 4 4 4 6 7 10 16 25 29 28 23 19 16 13 11 12 18 22 23 27 32 32 31 32 33 27 24 26 26 27 29 29 29 27 24 21 19 17 15 14 14 16 18 21 26 27 27 27 26 26 25 24 25 23 24 27 24 22 22 20 19 22 28 32 33 33 36
2 2 2 2 2 2 3 2 2 3 2 2 2 2 2 2 2 2 3 5 5 4 4 4 5 7 8 12 21 27 29 27 21 17 13 10 11 18 22 23 27 29 29 31 33 30 25 26 29 27 28 31 29 25 23 20 17 16 16 15 14 13 14 14 17 21 23 23 25 26 26 24 23 24 21 25 34 30 23 23 20 18 20 23 29 31 31 34
3 3 3 3 3 3 2 2 3 2 2 3 2 2 2 2 3 5 9 14 14 8 5 6 8 9 9 11 17 25 30 28 24 19 15 12 11 16 23 26 27 26 27 32 33 29 25 28 32 29 29 32 28 22 22 22 17 14 15 15 15 15 14 15 16 18 19 20 23 26 26 24 23 22 21 30 40 33 22 22 21 18 19 21 25 28 29 31
3 3 3 3 3 3 3 3 2 2 3 3 2 3 2 3 6 11 18 21 21 17 11 11 15 14 14 14 17 25 30 28 25 22 17 13 12 16 23 27 26 24 27 31 30 28 26 28 33 33 30 30 26 21 22 23 19 14 14 17 18 17 16 17 18 17 17 19 22 26 26 25 23 23 24 29 38 36 26 21 20 18 19 22 24 26 27 29
4 4 3 4 4 4 4 3 3 3 3 3 4 3 2 5 8 17 29 26 19 21 18 18 21 19 19 19 19 25 29 27 27 27 21 16 14 16 21 25 25 22 24 27 26 26 27 28 33 34 30 27 24 21 21 23 21 16 16 20 22 20 18 17 16 15 17 19 21 24 26 26 25 24 25 25 31 37 31 22 19 18 19 22 23 24 26 27
5 4 4 4 4 5 4 4 4 3 3 4 3 3 3 6 12 24 38 31 19 22 22 21 24 23 22 23 23 26 29 27 27 28 25 19 15 18 22 23 24 22 21 25 25 23 26 28 30 33 29 25 24 24 23 24 23 18 19 25 24 21 19 17 16 15 17 18 19 21 24 24 23 22 23 24 28 32 29 24 23 18 17 20 20 20 24 26
6 6 6 4 5 5 4 6 5 3 5 3 3 6 3 5 20 31 35 29 21 23 23 21 24 25 23 23 24 27 30 29 27 26 28 24 16 18 25 24 25 24 21 25 25 21 24 28 29 31 27 22 24 27 25 25 25 20 20 24 22 19 18 17 17 17 17 19 18 20 22 21 20 20 20 22 26 28 26 24 27 23 17 18 19 18 21 24
8 7 7 6 6 5 5 6 6 5 5 3 5 6 2 12 29 33 29 22 19 23 25 24 25 26 25 25 26 27 29 31 28 24 27 29 22 21 28 29 28 26 21 23 24 20 22 26 27 28 25 23 24 25 26 27 27 22 20 21 19 17 18 17 18 19 19 19 18 18 20 19 18 19 20 20 22 26 25 21 26 29 20 16 18 19 18 21
10 9 8 9 8 7 7 6 6 7 4 5 5 3 12 29 34 30 25 17 17 27 29 28 29 29 27 26 27 28 29 31 29 24 26 30 28 26 28 28 27 26 21 21 22 19 19 23 25 25 23 24 23 22 26 28 26 23 21 21 18 16 20 21 20 20 20 18 17 17 18 17 17 17 19 19 19 22 25 22 23 27 24 18 17 18 18 18
11 9 10 10 9 9 9 7 7 7 5 7 4 5 25 38 32 28 25 18 27 36 33 33 33 29 28 26 25 27 28 29 27 25 27 31 31 29 27 26 26 24 21 21 20 17 17 19 22 24 24 23 21 20 24 25 23 22 20 19 17 17 23 25 21 19 19 17 16 17 17 17 16 16 17 18 20 21 23 23 21 22 25 22 17 17 18 17
11 11 11 10 11 11 10 9 8 6 8 6 3 16 35 35 27 27 28 37 48 43 36 38 34 28 29 28 27 27 26 27 26 25 29 32 32 30 29 27 27 25 22 21 20 17 16 17 19 22 23 22 20 19 22 22 21 21 20 19 18 17 21 23 20 17 16 15 16 18 19 17 14 16 18 17 18 20 20 19 18 18 21 21 18 17 17 17
13 13 12 12 13 11 10 10 8 7 8 5 11 32 40 29 23 27 39 58 63 47 37 36 32 31 31 28 29 29 25 25 25 25 27 29 30 30 28 27 27 26 23 21 21 18 16 16 17 20 22 21 20 20 20 21 21 20 19 18 18 17 18 18 17 15 14 13 15 17 18 16 14 18 21 19 18 19 18 17 18 17 17 19 20 18 16 17
14 14 14 14 13 12 12 10 9 11 9 8 23 37 32 24 27 42 60 71 67 55 42 30 26 30 28 25 28 30 27 26 25 24 24 26 28 28 28 27 26 26 25 22 21 19 17 17 18 20 21 21 21 19 20 21 20 19 19 18 18 18 17 17 16 17 17 17 16 17 18 16 15 17 18 17 18 18 17 17 18 18 17 18 19 18 16 17
15 16 15 15 15 13 12 12 12 14 9 13 32 39 33 35 44 61 77 77 69 61 51 41 33 30 29 27 29 33 32 28 26 25 22 23 27 29 30 29 26 27 27 25 23 21 18 18 20 21 21 21 21 19 19 20 19 19 19 17 17 18 18 17 17 17 17 16 13 12 14 14 14 15 16 15 15 15 17 17 17 19 19 17 16 16 16 16
17 17 18 18 17 14 14 15 14 17 23 34 46 44 41 50 59 70 80 79 72 65 58 53 45 37 38 36 34 39 37 29 26 25 20 22 27 31 32 31 29 28 28 27 26 24 21 18 20 23 20 20 22 21 19 19 19 18 19 18 18 18 17 18 19 18 15 15 13 10 9 11 13 15 16 16 14 13 14 16 16 17 19 18 15 15 16 16
19 22 28 23 17 17 17 16 18 33 55 61 53 47 52 66 74 78 83 85 78 65 55 53 49 46 48 47 44 44 39 34 32 27 22 26 33 34 33 33 32 31 30 28 27 28 25 19 20 22 20 20 22 20 18 19 20 19 18 19 18 17 17 17 19 16 14 15 15 12 10 10 12 13 13 15 16 15 14 15 15 15 16 18 16 15 15 16
19 31 42 28 19 22 18 24 41 61 76 73 61 64 72 75 76 77 80 85 80 65 56 55 54 53 53 53 52 49 45 43 40 37 35 36 40 39 34 34 35 33 32 30 29 32 29 21 20 21 20 21 21 19 19 18 19 19 18 18 17 17 17 17 17 14 13 14 15 13 11 11 12 12 11 12 13 15 14 13 15 15 15 16 17 16 15 15
23 40 48 31 24 25 24 47 71 73 75 76 73 77 74 62 60 65 69 77 80 70 62 62 61 58 56 54 53 51 49 47 44 46 46 42 43 43 37 34 36 35 34 31 31 34 32 25 22 20 19 20 20 19 20 19 18 19 18 18 18 17 17 17 18 17 14 13 12 13 12 11 11 11 12 12 11 12 13 13 15 16 16 15 16 17 14 12
29 41 42 31 27 28 39 67 78 72 78 81 72 72 72 62 62 68 67 74 83 77 67 64 61 58 55 52 53 53 52 51 49 51 52 48 47 49 44 38 38 37 37 37 36 37 35 31 25 20 19 19 18 20 20 19 19 19 18 18 18 17 16 17 18 18 17 14 12 12 13 12 12 12 12 11 10 10 11 12 13 14 15 14 15 18 17 12
32 35 36 34 30 36 59 76 74 75 83 78 68 73 80 74 69 71 69 72 83 85 77 69 59 54 54 53 53 54 52 52 53 54 57 56 51 48 45 41 41 42 44 48 47 41 36 35 29 22 21 19 17 20 21 19 19 18 18 17 17 16 16 16 16 16 17 15 11 12 13 13 15 14 11 11 11 11 11 11 12 12 14 15 16 18 17 13
29 32 39 40 37 48 71 80 77 83 82 71 70 80 87 83 73 67 67 73 83 88 85 79 70 64 63 62 58 56 52 52 54 55 59 61 56 50 47 44 46 51 52 54 55 46 36 35 30 24 25 24 21 20 20 19 19 18 18 18 17 16 15 15 15 14 17 17 14 13 13 13 15 12 9 12 14 13 12 12 13 13 14 15 15 14 14 13
33 47 51 42 46 64 76 76 77 84 81 71 75 85 90 93 85 71 66 71 82 91 91 87 85 81 75 67 60 55 54 53 54 57 59 60 59 55 49 45 48 56 55 51 51 47 41 41 36 28 27 26 23 23 22 20 20 19 18 18 17 16 16 16 15 15 19 20 17 14 12 14 16 13 12 15 14 14 14 14 13 13 12 13 12 11 11 13
41 68 65 44 56 78 79 76 79 84 84 79 82 88 89 94 95 81 70 70 76 88 97 94 89 86 81 71 60 53 54 55 55 59 62 61 61 59 54 49 48 52 54 51 46 43 48 54 50 43 40 36 33 34 29 23 20 17 18 20 20 18 16 16 15 16 19 21 18 17 16 16 18 17 15 16 15 14 16 14 13 14 13 11 10 10 11 11
48 75 75 60 68 77 72 72 74 76 83 86 89 91 89 94 99 88 78 81 82 80 89 96 92 86 82 76 68 60 58 60 59 61 65 66 63 60 56 53 51 49 50 50 46 46 51 52 48 50 52 46 42 39 32 27 25 21 20 22 22 21 19 18 17 16 18 20 17 17 19 19 18 18 17 17 16 16 16 14 14 15 13 11 10 10 10 10
57 67 74 75 78 76 71 69 66 68 81 88 92 97 95 94 99 90 77 85 95 88 83 89 92 90 86 80 76 72 66 65 66 68 72 72 67 60 56 56 55 51 49 47 46 49 50 47 46 48 47 44 42 38 33 32 33 31 29 28 27 26 24 23 21 18 20 22 21 21 24 24 20 18 18 18 18 18 16 15 15 15 14 13 11 10 11 11
69 70 70 70 72 76 77 76 75 77 81 83 89 97 98 94 98 96 82 81 95 98 92 90 87 86 86 83 84 87 82 75 77 83 82 74 68 62 57 56 57 55 52 48 46 46 47 51 53 46 41 42 40 37 36 36 35 34 33 32 32 30 28 27 26 24 26 29 28 28 31 30 27 24 21 20 19 19 18 17 18 17 14 13 12 11 12 13
78 84 74 63 64 73 80 84 84 80 80 88 93 90 90 94 98 98 92 89 95 100 100 97 90 82 78 75 80 90 93 91 94 99 89 72 69 70 66 64 64 59 54 51 49 45 45 52 54 45 40 40 38 36 36 36 36 35 33 33 33 31 30 29 29 29 30 30 27 28 30 30 28 27 24 22 20 19 18 18 18 17 12 11 11 11 11 11
70 80 76 68 62 64 76 86 84 80 85 94 93 82 79 88 94 94 94 91 91 95 94 91 92 91 84 79 78 80 81 81 86 92 83 70 70 74 69 66 64 57 53 54 52 48 46 47 47 44 40 37 36 36 35 34 35 34 32 32 32 30 29 28 29 28 28 27 25 26 27 25 24 24 23 22 19 15 14 15 14 13 11 11 10 9 9 8
62 69 78 77 67 62 73 81 77 81 88 86 82 78 76 82 91 96 98 89 82 87 87 79 83 91 92 92 89 83 76 70 72 78 71 60 60 60 56 55 52 48 50 52 51 50 48 46 43 40 38 34 33 35 33 33 34 31 31 32 31 31 30 29 29 28 27 28 27 26 26 24 24 25 25 26 24 18 17 18 17 14 12 11 11 10 9 9
Wind_Speed
16 15 15 15 15 15 15 15 15 15 14 14 14 14 13 13 12 12 12 13 13 15 17 19 19 20 20 19 18 17 18 17 16 14 11 11 13 15 17 21 24 24 24 24 25 25 25 24 23 21 20 19 17 15 14 12 10 7 4 4 5 4 2 4 5 4 3 3 2 4 3 4 1 3 3 4 5 4 4 5 6 8 10 10 11 13 13 11
18 18 17 17 16 16 16 16 15 15 15 15 15 14 14 13 13 12 12 12 12 13 15 17 18 19 19 19 18 19 19 18 19 14 7 11 14 14 16 19 22 23 25 25 24 24 25 24 24 23 21 20 18 17 16 13 11 8 5 5 5 4 4 6 6 4 4 3 3 3 3 5 4 2 1 3 3 5 4 3 4 6 7 8 9 11 13 13
21 20 20 19 18 18 17 17 16 16 15 15 15 15 14 14 13 12 12 12 12 12 13 15 16 18 18 18 18 19 19 19 20 14 9 13 15 14 15 15 16 20 23 24 23 23 24 24 24 23 23 22 20 19 18 15 13 9 8 7 6 5 7 6 5 4 4 4 3 2 3 5 6 6 2 1 1 4 3 3 4 3 5 6 7 10 12 13
22 22 21 21 21 20 19 19 18 17 17 16 16 16 15 15 14 13 13 13 12 12 12 13 14 16 17 17 17 18 19 19 20 16 14 17 16 14 16 14 13 16 20 22 23 25 25 25 25 24 24 24 23 22 20 17 13 11 10 8 6 7 8 6 5 5 5 4 4 1 2 3 5 6 4 4 2 3 1 2 4 3 5 5 4 8 11 13
21 22 22 22 22 22 21 21 20 19 18 18 17 17 16 15 14 13 13 13 14 12 11 12 13 14 16 15 16 18 17 16 17 17 17 18 17 16 17 15 14 15 19 22 25 26 26 27 26 27 26 24 25 25 22 19 15 13 12 8 7 8 7 7 8 7 6 5 4 2 1 1 4 5 5 6 4 1 1 3 4 5 7 7 4 5 9 12
20 21 21 22 23 23 23 22 22 21 20 19 19 18 17 16 15 14 14 14 14 13 12 11 11 13 14 15 15 16 17 14 12 13 15 17 16 16 17 16 16 17 19 22 25 26 27 28 29 30 29 25 26 25 22 20 18 16 13 9 9 9 9 10 9 8 8 6 2 1 1 1 2 3 5 6 7 5 3 2 4 3 5 8 8 6 7 10
20 20 21 21 22 22 23 23 23 22 21 21 21 20 19 18 16 15 15 15 14 14 13 12 11 12 13 14 14 16 18 15 12 11 12 14 15 15 16 16 17 19 21 22 24 26 26 28 30 30 29 27 27 25 22 23 21 18 15 13 12 11 11 11 10 9 7 5 4 3 1 1 1 1 4 5 8 9 4 2 3 1 0 6 10 10 8 9
20 20 21 21 21 22 22 23 23 22 22 22 22 22 20 19 18 17 17 16 15 14 14 13 12 12 12 13 14 15 14 10 15 17 14 14 15 15 15 15 17 18 20 22 23 24 25 27 29 29 30 28 27 25 24 25 23 21 18 16 16 13 12 12 13 10 7 6 5 4 2 1 2 2 5 4 6 8 7 7 6 3 2 2 9 12 11 11
20 21 21 21 21 21 22 22 23 22 22 23 23 22 21 20 19 18 18 17 16 15 15 15 13 13 13 12 14 12 8 11 20 23 20 19 18 17 15 14 15 15 17 19 21 23 24 26 27 28 28 26 26 26 27 25 19 21 21 18 17 14 13 15 16 12 8 8 6 4 3 4 5 4 5 6 6 7 8 10 9 7 4 1 6 12 12 12
21 21 21 21 21 21 22 22 22 22 23 23 23 22 21 21 20 20 19 19 19 17 16 16 15 14 13 13 14 9 8 15 20 22 23 22 21 19 16 15 15 15 16 17 20 23 24 24 23 24 26 24 26 28 29 26 17 19 21 19 20 16 15 16 17 15 11 10 7 5 5 6 9 7 5 5 5 6 7 10 10 10 7 3 4 9 13 14
23 23 23 23 22 22 22 22 22 22 22 23 23 23 22 21 21 20 19 20 20 19 18 16 16 16 15 15 13 8 11 16 18 21 22 20 20 20 17 16 16 16 16 17 19 21 21 21 20 24 26 24 27 27 29 29 23 22 22 20 20 18 17 17 18 16 13 12 8 6 8 9 11 9 6 5 4 5 7 8 9 10 10 7 5 7 12 16
24 24 24 24 24 24 23 23 23 22 22 22 23 23 23 22 22 20 20 20 20 20 19 18 18 17 17 17 10 7 16 19 19 21 22 20 20 19 19 18 17 17 16 16 18 18 19 20 23 25 23 22 24 22 24 29 28 26 24 22 20 18 18 19 18 16 14 13 10 8 11 12 16 10 5 5 3 3 6 6 8 10 10 10 8 8 10 15
26 26 26 26 26 26 26 24 24 24 23 23 22 22 23 23 22 21 21 20 21 21 20 19 19 18 19 16 8 12 19 19 19 21 22 21 21 21 21 20 19 18 17 15 14 16 19 21 24 23 20 19 18 18 20 23 27 26 24 23 19 18 19 18 18 18 16 15 13 10 11 12 14 10 5 4 3 2 4 5 7 9 10 11 11 10 10 13
28 28 28 28 28 28 28 26 25 25 25 24 23 23 23 22 22 22 21 21 21 21 21 20 20 21 21 13 10 16 18 17 18 20 22 21 21 22 22 21 21 19 19 19 17 16 19 21 23 21 21 19 14 18 21 16 19 20 18 20 19 17 17 15 16 17 15 16 16 12 12 11 9 9 7 4 4 5 7 6 7 8 9 10 12 12 11 11
29 29 29 30 30 30 29 28 27 26 26 25 24 24 23 23 22 21 21 21 21 21 21 21 21 22 22 14 13 18 17 17 16 16 20 20 20 21 21 22 21 20 20 22 23 21 20 21 22 20 20 22 17 17 19 15 15 15 15 18 19 19 15 13 16 19 16 14 16 14 14 13 8 9 10 8 7 7 10 8 9 10 11 10 12 13 13 11
30 30 30 31 31 32 31 30 28 28 27 26 26 25 24 24 23 22 21 21 21 22 21 22 21 22 24 18 17 19 19 17 15 17 21 19 21 22 22 22 22 21 21 22 24 23 22 21 23 21 18 22 23 17 16 18 18 17 18 18 18 20 19 14 15 18 17 14 15 16 16 13 8 8 11 12 11 9 12 10 9 12 13 13 12 14 14 13
31 30 31 31 32 33 32 31 30 29 28 28 27 26 26 25 24 23 22 21 21 22 22 22 22 24 25 20 17 20 21 20 19 21 22 21 23 24 25 24 22 22 22 22 24 24 23 23 23 24 21 21 24 21 19 22 21 19 20 20 17 17 18 16 13 15 18 16 15 17 18 17 10 7 11 14 13 12 12 10 9 11 14 16 15 15 16 15
31 31 31 31 32 33 33 32 31 30 29 29 28 27 27 26 25 24 23 22 21 21 22 22 23 23 22 20 19 20 21 23 25 24 24 25 26 26 26 25 22 23 23 24 25 24 24 24 22 22 24 25 24 26 27 24 21 21 20 20 20 16 17 18 13 12 15 15 15 16 18 19 16 12 13 16 15 13 12 11 10 10 14 17 18 17 17 16
32 31 31 31 32 34 34 32 32 30 29 29 29 28 28 27 26 26 24 23 22 21 20 22 23 21 19 19 19 21 23 24 26 27 27 27 28 28 27 26 24 24 26 26 25 26 26 23 23 26 29 31 30 29 29 22 15 18 19 19 20 19 19 20 15 12 14 14 15 18 18 17 16 13 13 15 16 14 13 13 12 11 13 15 17 19 18 17
33 32 31 30 31 33 34 33 32 31 29 28 28 27 28 27 26 26 25 23 23 23 22 23 23 22 22 22 19 20 24 24 26 29 30 29 30 30 30 30 27 25 27 27 25 27 28 25 29 35 32 29 30 29 26 22 15 13 16 17 20 19 18 19 15 14 19 18 16 17 17 16 15 13 12 15 18 16 14 14 14 13 14 15 16 17 18 18
34 33 32 30 31 32 34 33 32 31 29 28 27 26 26 26 26 27 27 24 23 24 24 24 25 25 25 26 22 20 22 25 27 30 32 31 31 33 34 34 33 31 30 27 24 25 29 32 34 33 29 24 25 27 26 24 20 15 15 16 19 21 20 17 13 15 20 19 17 16 17 18 17 16 14 16 21 19 16 15 13 13 15 16 16 17 19 20
36 35 33 31 31 32 33 33 32 32 30 29 27 25 25 25 25 27 30 27 22 23 25 24 26 27 25 26 26 23 24 26 28 31 33 34 35 37 37 37 37 34 30 27 25 26 31 38 35 27 26 24 21 23 26 25 23 20 19 18 19 21 20 18 15 16 17 17 18 16 17 19 17 17 15 17 23 21 17 17 14 11 15 17 17 17 20 21
38 37 35 33 31 32 33 32 32 31 29 29 27 26 25 23 24 25 28 31 25 22 24 25 28 28 24 25 28 30 29 27 29 32 34 38 41 39 39 40 38 33 31 34 33 31 33 35 32 27 25 25 23 23 25 25 25 25 23 22 23 20 17 17 16 14 14 16 18 16 18 22 18 19 20 19 25 25 20 19 16 12 13 16 16 18 20 22
39 38 36 35 32 31 32 32 32 31 28 28 27 26 25 22 22 24 26 31 30 26 23 23 28 29 25 25 28 33 32 28 31 33 34 41 43 41 41 40 37 33 34 38 36 34 31 23 22 28 26 26 27 26 25 26 26 28 27 26 24 21 18 16 12 9 10 15 19 17 20 26 23 21 22 21 25 28 23 20 18 15 13 13 15 17 18 20
40 38 37 36 33 31 32 31 30 29 28 26 25 24 24 22 19 21 24 26 28 27 24 24 25 26 27 27 28 31 34 34 34 34 36 41 43 43 42 38 37 36 35 36 35 34 30 19 17 25 28 28 29 27 27 26 25 26 28 30 26 20 19 19 14 12 14 15 17 17 18 23 24 23 21 19 20 25 25 22 20 17 13 14 16 15 16 17
41 40 37 36 35 32 31 31 29 29 28 26 24 23 21 20 17 17 20 22 23 23 23 23 20 22 27 29 28 30 33 37 36 35 38 41 43 44 39 38 38 36 33 33 32 32 30 23 21 24 28 29 28 27 27 26 25 25 24 26 27 24 21 19 16 16 17 16 14 15 16 18 22 23 19 17 18 23 26 24 22 19 15 14 15 14 14 15
42 42 39 37 36 34 31 30 29 28 27 24 23 22 19 16 14 13 14 14 13 12 16 19 16 19 24 26 28 29 27 31 35 40 42 39 44 47 38 35 38 36 31 29 30 32 30 26 24 25 26 26 28 29 27 27 26 24 19 17 21 26 25 21 18 18 19 18 15 15 17 19 23 23 17 15 16 19 24 26 22 20 16 13 13 14 15 15
42 43 41 38 37 35 32 30 29 27 26 23 21 19 16 13 11 8 7 7 5 4 9 14 15 18 21 21 25 31 30 27 30 40 44 39 43 50 42 35 37 38 33 31 33 32 29 30 29 28 27 25 27 28 26 27 27 22 15 13 16 20 23 22 20 20 19 19 21 22 20 19 23 26 21 19 19 18 22 27 25 21 17 12 9 10 14 16
41 42 42 39 37 35 33 30 28 26 24 22 20 17 13 11 9 4 4 6 4 5 7 9 11 15 18 18 21 32 36 29 24 31 41 43 43 48 46 38 33 34 33 33 34 27 23 31 32 28 28 26 24 23 23 26 27 22 14 11 12 14 17 19 19 21 20 21 24 25 22 19 19 24 24 22 24 25 26 27 26 25 21 15 10 7 10 15
39 40 40 39 37 35 33 31 27 25 23 21 18 15 11 10 8 7 8 7 4 6 10 11 11 11 15 17 18 29 38 33 25 26 37 45 45 45 44 37 29 29 30 32 34 27 20 24 28 28 29 27 21 19 21 24 24 20 16 13 12 13 15 16 18 20 18 19 24 24 25 20 17 22 26 25 24 26 27 25 24 26 25 19 13 9 9 13
37 37 38 37 35 33 32 31 27 23 21 19 17 14 10 10 11 11 8 7 7 6 7 11 13 11 11 13 13 22 34 34 25 23 34 46 47 43 39 34 30 28 29 32 35 33 24 19 24 30 31 27 22 19 19 22 22 19 18 17 14 14 15 14 17 18 14 14 18 22 25 23 22 23 23 23 25 26 27 25 22 24 26 22 16 12 11 11
36 36 36 35 33 31 30 29 27 24 19 16 15 12 8 10 15 18 11 5 5 5 7 10 12 11 11 14 13 16 27 31 25 22 33 46 47 47 45 39 36 32 31 34 33 33 33 25 22 27 30 28 25 22 20 21 23 22 20 20 17 12 12 12 13 14 14 14 15 17 20 24 30 29 21 20 24 25 27 27 24 23 24 24 20 15 13 11
36 35 34 33 32 29 27 26 25 23 18 14 13 10 10 12 13 17 17 10 5 5 9 8 12 14 13 13 12 14 20 24 25 22 28 40 42 43 46 39 36 34 27 27 29 30 30 27 25 25 28 32 31 26 25 24 25 27 25 24 20 12 8 10 10 10 12 15 16 15 14 20 26 25 23 25 24 23 26 27 25 23 23 25 22 18 15 13
35 34 33 32 30 28 25 23 22 20 17 12 11 9 13 17 13 10 12 11 10 11 11 8 11 15 12 10 10 14 18 18 22 22 22 33 36 35 40 39 36 34 24 20 28 31 26 24 33 35 30 32 36 32 26 23 24 28 27 24 22 17 10 8 8 9 11 12 16 18 13 13 15 13 16 23 25 26 29 31 28 25 25 26 24 21 19 16
33 32 31 29 27 25 23 21 18 17 15 11 9 11 16 19 16 10 8 9 13 16 18 17 13 10 10 11 11 12 16 16 19 23 21 28 34 33 35 39 37 33 28 23 25 30 28 23 29 36 32 29 35 35 26 21 23 26 26 25 26 24 17 10 7 9 10 9 12 19 17 12 10 9 8 12 17 21 23 24 24 25 26 27 27 26 23 18
33 31 29 27 25 23 21 19 16 15 14 10 9 14 18 17 12 9 8 10 13 15 17 18 13 11 12 12 11 11 14 14 16 22 22 23 28 28 28 34 36 35 33 29 22 25 28 20 19 29 31 27 30 33 31 26 22 23 28 30 27 23 19 15 10 7 8 8 9 17 20 16 14 15 14 14 14 15 18 19 19 21 23 25 28 29 25 21
32 30 28 25 23 22 20 17 15 14 13 9 10 14 14 13 11 10 11 13 13 12 13 11 8 8 9 9 9 8 10 12 14 20 22 21 22 27 30 34 40 42 41 35 23 19 22 17 16 26 30 28 28 29 31 30 23 21 26 29 23 19 19 18 12 8 8 9 10 16 19 18 16 13 13 20 21 18 18 19 19 20 20 21 25 27 25 22
32 29 26 23 21 21 19 17 15 13 11 8 12 14 12 11 12 13 14 16 14 12 12 11 9 6 5 6 5 3 7 11 13 18 22 20 18 26 34 36 40 45 46 42 26 14 17 16 14 22 27 27 28 27 29 33 29 22 21 23 23 20 20 20 14 10 10 8 9 15 18 18 18 14 8 14 21 21 20 20 19 20 20 21 22 23 23 22
31 27 22 21 19 18 18 16 14 11 8 8 11 12 11 11 12 13 14 15 13 13 13 13 11 9 7 7 7 4 6 7 8 13 18 18 14 21 33 35 37 42 45 47 33 12 14 17 11 18 26 25 28 31 31 33 33 27 20 21 24 20 18 22 20 14 11 8 7 10 13 14 18 20 15 13 15 17 18 19 20 19 20 21 20 19 21 22
30 24 19 21 19 16 15 14 11 10 8 8 10 11 12 13 14 14 14 14 12 13 15 14 13 13 12 11 10 7 6 5 4 7 9 13 11 15 29 34 34 39 41 47 42 19 13 18 12 15 24 26 29 33 34 33 33 33 28 25 27 23 16 17 21 21 16 9 6 7 8 7 8 12 18 20 18 18 18 18 19 19 18 18 17 16 18 20
29 23 20 22 20 16 14 11 8 8 8 8 9 11 13 15 17 17 15 13 12 12 15 16 16 16 15 14 12 9 8 7 5 4 4 9 9 7 22 32 31 33 35 40 42 29 18 18 15 15 23 27 28 29 30 30 31 34 32 29 28 27 20 13 14 21 21 15 9 7 7 5 3 4 8 11 13 15 16 16 18 18 17 17 16 15 15 18
27 23 22 23 21 17 12 8 7 9 9 9 11 12 13 15 16 16 15 12 9 10 12 15 17 16 16 15 14 11 9 8 6 4 1 5 11 8 14 24 24 25 27 28 32 33 28 21 17 18 19 21 21 22 26 28 29 32 31 30 29 28 25 18 11 14 19 18 15 12 9 6 4 8 8 4 6 9 10 12 13 14 14 15 15 14 15 17
25 21 21 22 20 17 13 8 9 10 10 11 13 12 13 15 15 15 16 13 10 8 9 11 14 15 15 14 13 13 11 8 6 4 1 1 8 12 13 16 19 20 19 18 20 30 34 25 20 19 15 14 15 18 23 25 27 32 32 31 32 31 28 23 15 13 14 17 17 13 9 7 6 6 6 5 5 6 6 7 9 9 10 12 13 15 16 16
25 22 21 21 19 15 13 11 12 13 13 14 14 13 13 14 15 14 14 14 12 9 8 7 9 12 12 12 12 12 11 10 7 5 4 1 4 11 13 14 19 21 19 19 20 24 29 27 25 20 12 11 14 15 21 27 29 30 31 32 33 31 28 25 21 18 15 16 17 13 8 6 6 6 8 10 8 6 5 5 6 7 7 7 10 13 16 17
25 21 19 19 16 14 13 12 12 13 14 15 15 13 14 15 15 15 14 13 12 10 8 8 7 6 8 11 12 13 11 11 9 6 4 3 3 9 12 13 16 20 20 23 25 26 24 23 26 24 13 12 14 12 19 28 30 29 27 29 31 31 29 27 24 22 18 16 18 17 10 5 8 10 11 10 7 6 6 5 5 6 6 6 6 7 11 15
24 19 18 18 13 10 13 13 12 13 14 16 15 14 14 15 15 16 14 12 11 8 8 9 9 6 6 8 10 13 12 9 9 7 4 3 3 6 10 11 11 15 17 20 25 27 21 16 23 25 15 9 9 9 15 23 27 30 28 25 26 29 30 28 26 24 19 16 20 21 16 9 8 10 10 9 8 7 4 4 3 3 5 6 5 3 4 10
21 16 18 20 14 10 13 13 11 13 14 15 15 14 14 14 15 17 14 10 10 8 6 8 10 10 9 10 8 9 10 8 7 6 3 2 1 2 6 7 7 9 11 13 19 23 16 13 23 25 15 8 6 6 14 21 21 23 26 24 25 27 27 28 28 24 18 16 19 19 20 18 14 12 11 10 8 5 4 4 3 5 6 5 5 5 6 7
20 16 16 17 14 13 14 14 13 14 14 14 13 12 13 13 14 16 15 10 8 8 7 7 6 7 8 11 9 6 8 9 7 6 3 1 1 1 2 3 4 6 7 7 13 19 13 9 17 20 14 12 9 6 13 20 18 18 19 20 22 24 27 28 27 23 20 18 17 14 17 22 21 18 15 12 10 10 10 10 10 12 10 8 9 8 5 4
20 19 16 15 14 13 14 15 14 14 14 13 12 10 12 13 13 14 16 13 10 8 6 7 6 5 4 6 5 3 5 6 3 1 1 0 1 1 1 2 3 4 3 3 7 15 13 6 9 11 8 9 10 9 12 15 16 19 19 18 18 20 24 26 25 24 23 21 18 15 13 15 17 18 18 17 16 17 16 16 17 18 16 14 13 12 8 7
18 18 18 17 16 13 12 13 13 13 13 12 10 11 12 13 13 13 15 14 12 8 5 4 6 7 5 4 2 2 4 4 1 4 2 1 2 2 2 3 3 4 2 1 3 10 9 3 5 6 7 8 9 11 12 12 13 15 17 19 19 19 22 23 23 24 25 25 27 25 22 21 19 17 17 19 19 20 19 18 18 20 20 18 17 16 13 12
19 17 18 19 19 15 12 11 11 12 11 9 10 12 13 12 12 13 14 13 11 9 9 10 7 5 6 6 5 5 6 6 4 6 4 4 5 4 5 6 6 6 3 3 3 6 4 2 2 4 7 9 8 8 11 11 12 15 18 21 22 22 23 22 22 24 26 28 32 33 32 31 25 22 23 25 26 27 26 23 21 21 20 18 19 20 18 16
21 18 17 18 20 17 13 11 11 10 10 10 11 13 13 12 12 13 13 13 12 12 13 14 11 5 3 5 5 7 8 8 8 8 7 7 8 8 8 9 9 9 7 6 5 5 4 3 2 4 8 10 8 7 8 7 10 18 24 26 25 23 23 22 22 24 25 26 29 31 30 26 21 20 20 20 22 25 24 22 22 21 19 18 18 20 19 18
Wind_Direction
307 307 306 306 304 302 300 297 295 292 290 288 286 284 284 284 285 284 281 277 273 267 262 258 255 253 252 252 252 252 255 258 259 259 260 248 239 234 223 221 219 215 217 217 214 214 215 216 217 217 219 225 229 235 238 240 246 251 252 234 231 225 180 150 123 92 90 29 307 236 198 186 184 46 39 36 61 73 85 101 138 162 159 157 157 151 159 178
305 304 304 304 303 303 302 301 299 296 293 290 287 285 283 282 282 283 283 281 278 273 267 261 257 254 251 251 250 250 252 254 255 252 249 244 240 237 233 228 225 220 219 220 217 215 216 216 217 217 218 224 227 231 235 239 244 248 252 236 223 208 190 169 142 97 75 32 333 250 201 194 215 246 33 34 36 46 66 89 129 170 177 172 168 157 158 173
303 303 302 301 301 300 299 300 299 298 296 294 291 287 284 282 280 280 281 281 279 276 271 266 261 257 253 250 248 249 250 252 254 246 228 240 244 242 241 236 230 227 224 223 219 215 215 215 217 217 217 221 223 228 232 233 239 243 240 230 231 218 198 182 152 122 95 63 32 270 221 195 214 240 239 167 342 12 39 82 100 147 189 197 182 168 161 168
303 302 301 301 299 298 297 296 296 297 296 295 293 290 287 283 281 278 277 277 277 276 274 271 266 262 257 251 247 248 249 253 257 248 233 239 244 243 242 237 227 225 225 223 219 215 211 211 212 214 218 221 222 226 229 231 234 239 237 224 225 216 202 200 165 136 131 100 68 99 214 215 228 248 246 208 234 354 351 117 109 134 179 206 195 178 170 164
307 304 302 301 299 298 296 295 294 294 294 294 292 290 288 286 283 279 276 274 273 274 274 274 271 266 263 256 247 245 248 256 261 251 239 239 239 237 238 235 223 217 221 221 219 216 211 208 208 210 213 218 224 226 228 231 229 234 238 225 210 201 196 200 176 151 152 133 84 79 119 241 239 248 245 220 209 101 186 158 131 136 153 173 187 190 184 168
311 309 306 303 301 299 297 296 294 293 293 293 291 290 288 287 286 282 278 273 272 272 272 272 271 269 267 260 250 244 238 239 252 247 236 236 233 231 233 232 222 214 217 219 219 218 213 209 207 208 208 211 222 225 228 232 230 232 238 234 215 199 199 198 180 167 163 148 126 132 112 245 257 261 244 224 214 199 176 143 132 134 145 163 176 182 188 178
318 314 310 307 304 301 299 297 296 295 293 291 289 289 289 288 286 284 280 276 273 271 269 268 266 267 267 265 255 246 240 231 233 236 227 227 226 223 224 223 220 215 216 217 218 217 214 212 210 210 208 209 218 221 226 232 231 232 232 237 231 209 207 205 191 182 173 168 181 188 155 287 323 288 242 222 222 221 213 224 183 161 90 164 170 169 177 186
328 323 318 314 310 306 303 300 298 296 294 290 288 288 288 288 287 284 280 278 274 269 266 263 261 261 263 266 259 253 251 223 214 224 220 216 214 212 212 213 217 216 219 220 219 217 216 215 213 213 211 211 217 217 222 229 231 233 228 232 237 222 219 217 206 199 192 199 207 201 178 295 287 248 242 220 222 234 227 235 236 237 311 157 170 171 176 186
333 330 327 323 319 314 309 305 302 299 295 292 289 288 288 287 286 282 279 277 273 268 264 261 260 259 257 260 260 257 239 199 205 217 217 211 208 209 210 211 214 216 221 224 222 219 217 217 214 215 214 213 218 218 221 225 229 237 233 232 238 232 230 223 212 211 215 219 224 218 215 278 271 248 240 222 217 230 224 230 239 243 263 297 186 181 177 182
333 331 329 327 324 321 317 313 309 305 300 295 292 291 289 287 283 280 279 275 272 269 264 262 260 258 257 254 253 244 208 206 209 215 219 215 213 217 218 214 215 219 223 224 222 219 216 215 213 218 217 215 220 221 223 222 222 236 237 235 238 237 235 227 218 219 226 228 226 228 240 265 266 255 231 223 223 220 222 230 236 244 248 262 226 197 186 182
333 331 330 327 325 323 321 319 316 312 306 301 297 294 292 288 284 280 277 273 271 269 264 262 260 257 255 252 251 236 217 219 215 217 223 221 218 220 220 218 219 223 227 226 222 217 214 210 210 218 217 216 221 223 227 224 221 230 235 238 240 241 240 233 224 221 229 235 229 237 252 254 252 245 210 216 241 224 227 231 232 242 246 245 242 217 199 187
332 331 330 328 326 323 321 320 319 316 313 308 303 299 295 290 286 283 278 273 271 268 265 261 258 256 252 252 252 225 222 225 221 220 223 222 217 214 214 216 218 220 222 223 217 210 209 207 209 214 215 218 220 224 231 229 227 230 235 240 245 249 248 238 228 225 230 235 230 240 254 247 244 243 215 236 279 244 238 236 231 237 242 240 236 231 215 198
329 329 328 327 325 323 321 320 320 317 315 311 307 304 300 294 290 285 280 275 271 268 266 260 257 255 253 251 237 222 226 228 226 222 221 220 216 213 212 214 216 214 210 205 205 208 208 209 210 210 212 215 216 221 227 230 231 233 239 244 250 256 249 237 227 225 229 231 226 233 240 232 236 238 231 261 305 315 279 255 236 232 236 238 233 234 228 212
326 325 324 323 322 320 319 319 319 317 315 312 309 306 303 299 293 288 282 277 273 268 265 260 257 254 253 249 223 227 230 228 226 222 221 216 213 213 212 213 214 212 206 192 186 202 209 210 210 207 211 209 210 226 223 227 233 230 238 241 242 248 240 224 219 216 218 228 225 222 229 222 217 220 224 272 303 325 321 283 250 237 234 236 233 233 232 227
322 322 321 319 318 316 315 316 316 315 314 312 309 306 304 301 297 292 284 278 274 269 265 260 256 254 255 246 222 226 228 226 224 220 219 213 208 209 207 208 210 210 206 194 187 191 198 204 204 202 211 209 207 221 218 222 231 221 224 229 229 232 226 213 218 215 207 224 230 218 225 226 209 208 225 261 278 308 324 295 256 241 235 236 234 232 231 232
319 318 318 317 315 313 312 313 313 312 312 310 308 306 303 301 298 295 289 282 274 270 266 260 256 254 255 247 228 226 228 226 218 213 214 208 202 200 198 201 205 206 199 192 190 187 189 196 201 200 206 213 212 211 212 220 223 217 220 225 223 221 220 214 220 221 209 216 231 222 222 223 202 199 226 256 269 295 320 304 261 241 233 230 230 232 231 230
317 316 316 314 313 311 310 311 310 310 310 308 307 305 303 301 298 295 291 285 277 270 265 261 257 253 253 250 235 228 226 222 213 212 211 202 199 197 196 196 199 203 194 186 187 184 186 191 198 203 204 212 213 207 212 217 215 213 217 224 224 216 216 213 208 216 215 216 225 226 229 228 221 220 239 261 270 283 312 312 273 246 234 229 225 229 232 232
316 316 315 314 312 310 309 309 308 308 308 306 304 303 302 300 297 294 289 284 279 274 266 260 255 252 254 251 241 232 225 219 214 214 210 201 199 198 196 195 196 198 190 185 186 184 188 191 197 206 208 210 208 205 211 213 212 213 212 218 223 220 221 217 204 204 211 216 221 224 230 233 237 244 250 261 265 272 299 305 277 248 234 231 224 225 232 233
317 316 315 315 313 310 308 308 307 306 307 305 303 302 300 299 297 292 288 284 279 273 265 259 250 244 248 247 239 233 226 219 214 215 212 203 199 198 194 194 196 197 192 189 190 191 189 191 200 208 210 210 207 207 211 212 215 218 217 219 222 222 225 222 216 215 215 218 225 228 234 239 241 241 245 258 258 262 285 296 283 251 229 231 226 224 228 231
320 319 318 318 316 312 310 309 308 306 305 304 303 302 299 298 296 291 287 283 279 273 263 260 255 243 241 241 236 231 223 216 212 212 212 207 201 196 194 194 194 198 200 195 195 197 193 195 207 209 208 209 210 210 210 213 219 220 218 223 225 224 226 223 222 232 231 230 233 233 239 244 242 242 247 257 255 256 274 292 288 254 227 227 228 225 225 228
322 321 320 321 319 315 313 311 310 308 307 304 303 303 299 296 294 289 285 279 275 274 266 262 258 247 240 238 232 227 221 214 210 209 208 207 201 197 196 196 194 197 201 198 197 200 201 208 214 212 208 208 212 213 213 216 221 222 220 224 230 230 231 227 222 235 239 240 241 237 245 250 249 250 249 251 251 254 271 286 287 256 229 224 226 225 225 225
323 322 322 323 322 319 316 315 313 311 310 307 305 304 299 296 293 290 287 280 269 268 268 264 261 252 241 237 231 223 221 215 209 208 205 202 201 200 199 198 197 198 195 193 196 198 207 218 218 212 210 210 212 215 215 216 219 223 226 230 235 232 233 234 232 239 244 246 245 244 253 256 254 251 245 246 249 252 267 278 283 262 230 220 223 225 226 224
323 322 322 322 323 321 318 319 317 315 314 310 307 305 301 298 295 292 290 285 274 263 264 263 262 260 246 235 229 223 223 217 210 209 204 201 201 200 202 201 198 198 195 194 196 197 209 223 219 211 212 212 212 212 210 213 220 225 227 230 234 230 230 233 228 231 242 245 247 252 261 261 256 250 245 248 250 252 262 269 273 267 237 217 217 224 230 229
323 323 323 323 324 322 318 319 320 319 317 313 309 306 302 301 298 293 291 289 282 270 265 260 256 258 253 237 227 223 224 218 212 210 204 202 201 198 203 205 198 197 201 201 201 204 212 223 217 210 210 210 210 211 210 214 223 228 228 228 231 230 230 234 225 223 245 250 249 255 266 263 254 248 247 247 250 253 258 262 265 268 256 230 217 219 226 231
324 324 326 325 325 325 319 319 320 319 318 314 309 305 302 303 300 293 293 296 289 278 271 263 253 251 248 239 227 220 221 218 213 211 207 203 201 198 202 204 200 202 206 203 205 213 218 221 215 207 207 211 211 214 217 217 223 229 230 229 230 231 233 237 239 245 254 252 247 246 256 260 250 245 245 237 242 252 255 257 259 262 260 240 226 220 221 227
323 323 326 326 326 327 323 320 320 318 318 317 310 305 303 303 298 295 300 299 291 283 273 263 252 242 239 235 225 214 218 222 214 211 210 204 200 200 200 202 203 206 208 204 209 220 221 221 221 207 205 212 214 219 220 215 220 228 230 231 230 230 234 237 238 242 248 249 244 231 237 256 252 245 241 228 233 250 254 256 255 254 253 237 224 220 220 226
323 322 325 327 326 327 326 322 320 318 319 318 312 307 305 300 294 299 307 296 280 274 263 249 234 229 230 229 218 205 211 222 214 210 211 205 200 200 200 202 204 207 205 201 212 222 217 212 215 207 203 212 214 218 217 211 218 226 227 229 228 227 230 234 238 242 247 252 248 230 233 254 255 244 235 228 230 241 248 250 249 250 248 233 220 217 216 224
322 320 321 325 326 327 327 324 322 320 318 317 311 306 302 292 282 293 306 284 245 226 246 234 219 219 220 221 211 200 204 214 211 213 213 206 202 201 202 203 207 208 201 199 211 219 213 207 210 206 202 210 215 216 214 209 215 221 220 223 224 224 228 232 240 245 248 252 248 237 233 246 251 244 239 236 232 230 241 247 244 243 241 230 222 222 218 218
321 319 319 321 323 324 326 325 322 319 316 316 310 303 294 276 261 260 265 256 228 218 234 219 211 215 213 213 205 198 203 207 208 212 208 207 206 203 204 205 208 212 207 206 214 216 213 213 214 209 207 212 216 215 211 210 214 216 214 220 219 220 226 229 235 241 244 247 246 237 231 237 250 245 236 231 229 230 239 244 243 240 238 234 231 233 224 215
321 319 318 319 319 320 321 322 321 317 315 313 307 299 280 254 234 226 231 226 214 227 227 209 199 204 207 209 205 201 202 202 211 210 200 204 207 204 206 207 208 216 214 214 219 219 219 220 215 213 217 219 216 213 211 212 214 213 212 216 219 222 226 227 230 235 241 243 240 235 229 236 252 246 234 227 228 235 238 236 240 242 238 235 233 227 221 215
321 319 319 318 318 317 316 318 319 317 314 310 304 295 266 238 223 222 228 218 213 218 213 205 199 198 200 199 204 211 204 201 210 207 193 198 203 203 204 204 204 212 214 216 222 222 220 220 213 217 225 220 213 216 213 211 212 209 209 212 217 219 217 223 224 223 234 241 235 232 229 233 245 243 235 231 231 238 240 231 231 241 241 236 231 226 225 224
322 320 319 318 318 317 313 312 314 314 313 307 299 284 245 231 225 224 235 253 240 209 185 198 205 202 202 198 198 211 206 203 208 205 195 195 198 201 201 199 196 198 206 211 214 217 219 219 215 219 225 216 208 211 208 204 206 206 205 206 208 205 200 210 213 214 231 239 231 229 226 230 241 243 237 233 231 233 238 235 229 235 242 239 231 227 230 228
323 322 320 319 317 317 313 311 310 310 312 304 291 268 228 231 231 228 237 257 287 232 200 214 216 204 204 207 206 204 203 205 208 206 199 195 196 202 204 202 198 198 205 207 204 209 215 219 217 214 218 217 209 203 200 198 200 203 202 201 203 199 192 205 211 216 231 233 227 221 220 233 244 248 238 233 230 225 231 237 232 227 234 240 234 226 230 232
325 323 322 320 318 316 314 311 306 305 307 297 279 256 227 231 240 245 247 257 277 256 236 243 223 206 210 217 217 204 198 204 204 199 196 194 196 202 203 204 205 205 210 208 203 205 205 211 214 208 209 216 210 202 200 197 197 202 202 203 209 211 212 210 209 222 229 228 217 202 206 232 240 245 235 227 228 230 237 244 243 236 233 237 236 230 233 235
328 326 324 321 318 316 315 310 305 302 301 293 268 247 234 235 244 261 277 289 291 272 256 253 240 235 241 225 221 207 191 196 201 195 195 197 199 203 202 204 206 206 212 214 207 206 209 217 215 208 208 212 207 203 200 196 198 202 201 208 214 214 219 231 237 239 236 239 217 202 210 226 227 234 222 206 213 223 233 239 239 240 235 232 235 235 235 233
331 330 327 324 321 320 315 310 308 302 297 293 267 248 242 243 254 275 304 315 310 299 279 264 251 249 247 223 219 214 191 190 196 196 199 200 201 204 203 204 205 205 210 214 208 202 210 219 208 202 205 208 205 202 198 196 197 196 200 210 214 211 217 232 244 247 241 251 226 208 219 230 240 252 237 213 212 212 218 223 224 231 231 227 232 236 236 233
334 333 331 329 325 320 314 312 310 304 307 297 258 253 253 253 267 289 310 313 307 313 309 289 265 248 244 222 208 207 205 204 198 199 201 196 198 202 199 198 202 203 205 207 208 205 208 212 196 192 197 201 202 200 199 202 199 192 201 208 206 206 219 230 236 228 223 241 232 220 229 231 232 247 234 219 221 219 220 224 223 225 226 227 231 234 235 234
338 336 335 334 328 319 315 315 314 311 317 296 257 260 266 267 276 285 303 310 300 300 301 288 280 280 268 246 230 214 221 211 195 201 202 193 201 208 202 200 202 204 204 201 202 207 206 204 190 190 195 195 193 194 199 206 207 204 205 201 193 197 210 215 221 227 220 231 237 229 235 236 229 231 224 213 218 221 222 223 222 221 223 230 235 233 232 232
340 339 340 338 329 322 318 317 320 324 312 279 267 270 268 275 287 288 294 306 300 286 280 277 274 277 278 282 298 288 235 216 195 205 205 195 206 213 205 203 205 206 205 201 200 204 206 207 192 186 193 188 186 195 200 201 204 208 210 202 198 204 209 206 211 222 227 234 240 230 232 239 237 233 228 219 212 212 214 218 224 224 223 230 235 235 233 231
341 343 342 339 335 330 329 330 332 334 316 285 279 284 284 287 289 287 289 296 295 273 265 273 271 268 273 280 295 291 263 269 239 219 216 200 199 211 207 205 206 207 205 203 204 206 206 215 209 178 185 189 191 198 201 196 195 199 204 203 200 204 211 213 215 219 226 237 239 236 233 233 238 233 230 231 226 220 219 222 228 228 223 225 229 234 236 233
348 350 340 339 344 341 344 354 348 337 329 317 311 308 305 301 294 293 293 289 288 272 260 268 270 268 271 269 277 286 277 283 264 242 254 201 181 193 208 207 208 208 206 204 207 211 207 212 214 184 182 195 200 199 199 199 196 195 200 202 199 201 204 207 213 215 222 233 235 243 250 246 233 171 183 210 220 223 227 226 227 227 224 223 224 229 238 236
355 354 343 342 347 352 1 6 349 350 349 337 334 327 315 310 305 301 293 279 281 277 261 264 265 264 268 264 266 273 270 281 272 245 283 189 181 178 197 205 207 201 200 201 206 212 209 204 210 202 193 202 207 202 199 201 199 199 203 204 202 204 205 206 208 206 214 226 231 241 254 255 214 165 157 190 216 212 217 216 217 222 223 221 219 221 230 229
357 356 350 348 351 2 13 1 347 359 356 344 343 335 322 316 313 308 296 283 280 273 252 257 262 259 263 261 256 257 255 265 271 242 239 191 201 198 186 191 191 181 184 194 200 207 207 202 208 212 206 204 202 199 201 201 202 205 208 207 207 209 208 210 216 214 215 220 218 226 243 235 215 200 204 219 199 181 190 198 205 211 213 216 214 213 219 221
356 1 358 354 355 9 16 1 357 359 348 346 347 341 338 332 322 316 305 293 291 280 247 240 257 261 264 260 248 247 248 248 252 239 220 183 197 198 183 176 178 168 171 187 187 193 201 203 207 209 197 190 191 191 198 201 204 209 209 208 209 211 211 213 220 226 232 224 212 216 233 218 188 161 144 146 154 160 167 174 179 181 181 194 206 212 220 228
356 0 1 358 358 9 11 0 360 356 343 344 347 343 349 346 335 329 319 305 298 284 259 249 250 257 269 261 243 238 243 249 247 233 206 184 182 192 179 169 178 177 181 189 185 182 191 199 205 208 207 200 195 191 195 198 202 207 208 208 209 210 209 210 216 222 227 226 221 222 225 183 148 148 143 143 156 157 148 152 155 155 146 140 158 199 222 232
358 356 356 2 8 7 1 356 353 349 342 342 342 341 346 346 339 339 333 315 297 278 262 257 239 209 212 228 229 231 236 243 239 220 193 190 202 200 187 173 175 181 186 191 185 182 187 193 199 208 222 215 187 180 189 191 197 203 204 203 205 207 207 208 214 219 219 225 229 227 223 207 170 168 169 164 161 155 157 169 162 168 162 146 151 186 201 215
359 356 353 358 2 352 349 350 343 341 341 340 335 332 339 342 339 341 341 324 305 292 276 261 236 215 199 183 184 223 229 223 222 210 181 166 163 217 210 194 181 174 173 178 179 179 185 200 203 208 225 222 176 169 183 181 185 198 201 200 200 201 204 209 215 218 216 223 231 225 221 223 210 184 174 173 178 198 233 233 224 227 213 197 214 203 150 161
354 358 357 352 346 337 338 341 337 336 336 333 329 328 335 340 340 341 340 332 325 315 297 285 257 229 203 176 168 205 220 212 213 205 187 180 74 60 250 235 218 190 161 159 174 173 173 200 206 209 226 227 210 191 182 180 181 183 186 193 197 199 205 213 218 219 220 228 233 222 218 224 225 220 219 226 235 246 255 261 261 251 243 247 243 217 175 157
348 351 350 344 338 332 331 334 334 335 332 327 327 328 330 336 338 340 338 330 331 338 315 290 275 249 204 173 163 184 203 202 203 178 165 204 147 141 222 246 257 236 181 166 174 167 166 193 207 207 231 234 222 213 195 190 196 194 190 192 195 199 210 217 220 223 227 233 234 230 229 229 226 229 236 243 248 254 258 263 266 261 252 248 244 238 249 258
345 342 336 335 339 336 331 330 328 329 329 324 324 322 325 335 335 335 337 327 321 336 351 313 278 262 266 276 262 224 209 202 330 355 341 199 189 232 226 215 269 283 237 237 199 171 169 219 229 215 232 230 223 223 215 209 215 215 212 211 207 205 210 214 219 221 226 233 235 239 247 243 233 233 239 238 238 243 248 254 263 262 251 242 235 231 235 237
341 336 329 329 333 336 335 328 323 326 325 316 314 316 321 330 330 331 334 325 317 329 341 345 333 280 272 287 271 255 252 238 261 308 295 216 214 241 233 228 256 278 272 294 264 196 184 276 255 218 229 221 205 211 221 228 240 242 235 225 217 215 214 215 219 221 224 231 236 240 246 247 246 250 254 254 253 254 257 261 264 261 256 252 243 236 236 239
338 334 328 324 326 332 336 327 322 323 314 305 308 314 318 321 322 329 331 322 323 329 326 330 337 326 296 296 277 270 270 259 264 275 257 226 225 232 233 238 251 260 260 271 273 253 258 282 248 209 221 214 190 191 215 234 247 247 241 231 222 219 218 218 221 223 223 226 231 238 245 250 254 254 253 259 262 260 262 265 266 264 262 259 253 247 246 244